owner,sensor,date,latitude,longitude,vertical_datum,sea_water_temperature,qcFlag 
NERRS,ioos:station:NOAA.NERRS:gndblwq:1,2013-12-19T18:00:00Z,30.3571,-88.4629,0.0,12.9,2 
NERRS,ioos:station:NOAA.NERRS:gndblwq:1,2013-12-19T19:00:00Z,30.3571,-88.4629,0.0,13.4,2 
NERRS,ioos:station:NOAA.NERRS:gndblwq:1,2013-12-19T20:00:00Z,30.3571,-88.4629,0.0,13.2,2 
NERRS,ioos:station:NOAA.NERRS:gndblwq:1,2013-12-19T21:00:00Z,30.3571,-88.4629,0.0,13.2,2 
NERRS,ioos:station:NOAA.NERRS:gndblwq:1,2013-12-19T22:00:00Z,30.3571,-88.4629,0.0,13.2,2 
NERRS,ioos:station:NOAA.NERRS:gndblwq:1,2013-12-19T23:00:00Z,30.3571,-88.4629,0.0,13.1,2 
NERRS,ioos:station:NOAA.NERRS:gndblwq:1,2013-12-20T00:00:00Z,30.3571,-88.4629,0.0,13.3,2 
NERRS,ioos:station:NOAA.NERRS:gndblwq:1,2013-12-20T01:00:00Z,30.3571,-88.4629,0.0,13.3,2 
NERRS,ioos:station:NOAA.NERRS:gndblwq:1,2013-12-20T02:00:00Z,30.3571,-88.4629,0.0,13.4,2 
NERRS,ioos:station:NOAA.NERRS:gndblwq:1,2013-12-20T03:00:00Z,30.3571,-88.4629,0.0,13.3,2 
NERRS,ioos:station:NOAA.NERRS:gndblwq:1,2013-12-20T04:00:00Z,30.3571,-88.4629,0.0,13.4,2 
NERRS,ioos:station:NOAA.NERRS:gndblwq:1,2013-12-20T05:00:00Z,30.3571,-88.4629,0.0,13.4,2 
NERRS,ioos:station:NOAA.NERRS:gndblwq:1,2013-12-20T06:00:00Z,30.3571,-88.4629,0.0,13.4,2 
NERRS,ioos:station:NOAA.NERRS:gndblwq:1,2013-12-20T07:00:00Z,30.3571,-88.4629,0.0,13.4,2 
NERRS,ioos:station:NOAA.NERRS:gndblwq:1,2013-12-20T08:00:00Z,30.3571,-88.4629,0.0,13.3,2 
NERRS,ioos:station:NOAA.NERRS:gndblwq:1,2013-12-20T09:00:00Z,30.3571,-88.4629,0.0,13.3,2 
NERRS,ioos:station:NOAA.NERRS:gndblwq:1,2013-12-20T09:45:00Z,30.3571,-88.4629,0.0,13.3,2 
NERRS,ioos:station:NOAA.NERRS:gndblwq:1,2013-12-20T11:00:00Z,30.3571,-88.4629,0.0,13.3,2 
NERRS,ioos:station:NOAA.NERRS:gndblwq:1,2013-12-20T12:00:00Z,30.3571,-88.4629,0.0,13.4,2 
NERRS,ioos:station:NOAA.NERRS:gndblwq:1,2013-12-20T13:00:00Z,30.3571,-88.4629,0.0,13.5,2 
NERRS,ioos:station:NOAA.NERRS:gndblwq:1,2013-12-20T14:00:00Z,30.3571,-88.4629,0.0,13.6,2 
NERRS,ioos:station:NOAA.NERRS:gndblwq:1,2013-12-20T15:00:00Z,30.3571,-88.4629,0.0,14.0,2 
NERRS,ioos:station:NOAA.NERRS:gndblwq:1,2013-12-20T16:00:00Z,30.3571,-88.4629,0.0,14.2,2 
NERRS,ioos:station:NOAA.NERRS:gndblwq:1,2013-12-20T17:00:00Z,30.3571,-88.4629,0.0,15.1,2 
NERRS,ioos:station:NOAA.NERRS:gndblwq:1,2013-12-20T18:00:00Z,30.3571,-88.4629,0.0,15.6,2 
NERRS,ioos:station:NOAA.NERRS:gndblwq:1,2013-12-20T19:00:00Z,30.3571,-88.4629,0.0,15.4,2 
NERRS,ioos:station:NOAA.NERRS:gndblwq:1,2013-12-20T20:00:00Z,30.3571,-88.4629,0.0,15.0,2 
NERRS,ioos:station:NOAA.NERRS:gndblwq:1,2013-12-20T21:00:00Z,30.3571,-88.4629,0.0,15.1,2 
NERRS,ioos:station:NOAA.NERRS:gndblwq:1,2013-12-20T22:00:00Z,30.3571,-88.4629,0.0,15.1,2 
NERRS,ioos:station:NOAA.NERRS:gndblwq:1,2013-12-20T23:00:00Z,30.3571,-88.4629,0.0,15.0,2 
NERRS,ioos:station:NOAA.NERRS:gndblwq:1,2013-12-21T00:00:00Z,30.3571,-88.4629,0.0,15.0,2 
NERRS,ioos:station:NOAA.NERRS:gndblwq:1,2013-12-21T01:00:00Z,30.3571,-88.4629,0.0,14.9,2 
NERRS,ioos:station:NOAA.NERRS:gndblwq:1,2013-12-21T02:00:00Z,30.3571,-88.4629,0.0,15.0,2 
NERRS,ioos:station:NOAA.NERRS:gndblwq:1,2013-12-21T03:00:00Z,30.3571,-88.4629,0.0,14.9,2 
NERRS,ioos:station:NOAA.NERRS:gndblwq:1,2013-12-21T04:00:00Z,30.3571,-88.4629,0.0,14.7,2 
NERRS,ioos:station:NOAA.NERRS:gndblwq:1,2013-12-21T05:00:00Z,30.3571,-88.4629,0.0,14.7,2 
NERRS,ioos:station:NOAA.NERRS:gndblwq:1,2013-12-21T06:00:00Z,30.3571,-88.4629,0.0,14.8,2 
NERRS,ioos:station:NOAA.NERRS:gndblwq:1,2013-12-21T07:00:00Z,30.3571,-88.4629,0.0,14.9,2 
NERRS,ioos:station:NOAA.NERRS:gndblwq:1,2013-12-21T08:00:00Z,30.3571,-88.4629,0.0,15.2,2 
NERRS,ioos:station:NOAA.NERRS:gndblwq:1,2013-12-21T09:00:00Z,30.3571,-88.4629,0.0,15.2,2 
NERRS,ioos:station:NOAA.NERRS:gndblwq:1,2013-12-21T10:00:00Z,30.3571,-88.4629,0.0,15.3,2 
NERRS,ioos:station:NOAA.NERRS:gndblwq:1,2013-12-21T11:00:00Z,30.3571,-88.4629,0.0,15.3,2 
NERRS,ioos:station:NOAA.NERRS:gndblwq:1,2013-12-21T12:00:00Z,30.3571,-88.4629,0.0,15.5,2 
NERRS,ioos:station:NOAA.NERRS:gndblwq:1,2013-12-21T13:00:00Z,30.3571,-88.4629,0.0,15.5,2 
NERRS,ioos:station:NOAA.NERRS:gndblwq:1,2013-12-21T14:00:00Z,30.3571,-88.4629,0.0,15.8,2 
NERRS,ioos:station:NOAA.NERRS:gndblwq:1,2013-12-21T15:00:00Z,30.3571,-88.4629,0.0,16.0,2 
NERRS,ioos:station:NOAA.NERRS:gndblwq:1,2013-12-21T16:00:00Z,30.3571,-88.4629,0.0,16.7,2 
NERRS,ioos:station:NOAA.NERRS:gndblwq:1,2013-12-21T17:00:00Z,30.3571,-88.4629,0.0,17.3,2 
NERRS,ioos:station:NOAA.NERRS:gndblwq:1,2013-12-21T18:00:00Z,30.3571,-88.4629,0.0,17.2,2 
NERRS,ioos:station:NOAA.NERRS:gndblwq:1,2013-12-21T19:00:00Z,30.3571,-88.4629,0.0,16.8,2 
NERRS,ioos:station:NOAA.NERRS:gndblwq:1,2013-12-21T20:00:00Z,30.3571,-88.4629,0.0,17.7,2 
NERRS,ioos:station:NOAA.NERRS:gndblwq:1,2013-12-21T21:00:00Z,30.3571,-88.4629,0.0,17.8,2 
NERRS,ioos:station:NOAA.NERRS:gndblwq:1,2013-12-21T22:00:00Z,30.3571,-88.4629,0.0,17.5,2 
NERRS,ioos:station:NOAA.NERRS:gndblwq:1,2013-12-21T22:45:00Z,30.3571,-88.4629,0.0,17.7,2 
NERRS,ioos:station:NOAA.NERRS:gndblwq:1,2013-12-22T00:00:00Z,30.3571,-88.4629,0.0,17.6,2 
NERRS,ioos:station:NOAA.NERRS:gndblwq:1,2013-12-22T01:00:00Z,30.3571,-88.4629,0.0,17.2,2 
NERRS,ioos:station:NOAA.NERRS:gndblwq:1,2013-12-22T02:00:00Z,30.3571,-88.4629,0.0,17.1,2 
NERRS,ioos:station:NOAA.NERRS:gndblwq:1,2013-12-22T03:00:00Z,30.3571,-88.4629,0.0,16.7,2 
NERRS,ioos:station:NOAA.NERRS:gndblwq:1,2013-12-22T04:00:00Z,30.3571,-88.4629,0.0,16.7,2 
NERRS,ioos:station:NOAA.NERRS:gndblwq:1,2013-12-22T05:00:00Z,30.3571,-88.4629,0.0,16.5,2 
NERRS,ioos:station:NOAA.NERRS:gndblwq:1,2013-12-22T06:00:00Z,30.3571,-88.4629,0.0,16.5,2 
NERRS,ioos:station:NOAA.NERRS:gndblwq:1,2013-12-22T07:00:00Z,30.3571,-88.4629,0.0,16.8,2 
NERRS,ioos:station:NOAA.NERRS:gndblwq:1,2013-12-22T08:00:00Z,30.3571,-88.4629,0.0,17.0,2 
NERRS,ioos:station:NOAA.NERRS:gndblwq:1,2013-12-22T09:00:00Z,30.3571,-88.4629,0.0,17.2,2 
NERRS,ioos:station:NOAA.NERRS:gndblwq:1,2013-12-22T10:00:00Z,30.3571,-88.4629,0.0,17.2,2 
NERRS,ioos:station:NOAA.NERRS:gndblwq:1,2013-12-22T11:00:00Z,30.3571,-88.4629,0.0,17.5,2 
NERRS,ioos:station:NOAA.NERRS:gndblwq:1,2013-12-22T12:00:00Z,30.3571,-88.4629,0.0,17.5,2 
NERRS,ioos:station:NOAA.NERRS:gndblwq:1,2013-12-22T13:00:00Z,30.3571,-88.4629,0.0,17.8,2 
NERRS,ioos:station:NOAA.NERRS:gndblwq:1,2013-12-22T14:00:00Z,30.3571,-88.4629,0.0,17.5,2 
NERRS,ioos:station:NOAA.NERRS:gndblwq:1,2013-12-22T15:00:00Z,30.3571,-88.4629,0.0,17.6,2 
NERRS,ioos:station:NOAA.NERRS:gndblwq:1,2013-12-22T16:00:00Z,30.3571,-88.4629,0.0,17.5,2 
NERRS,ioos:station:NOAA.NERRS:gndblwq:1,2013-12-22T17:00:00Z,30.3571,-88.4629,0.0,17.5,2 
NERRS,ioos:station:NOAA.NERRS:gndblwq:1,2013-12-22T18:00:00Z,30.3571,-88.4629,0.0,17.2,2 
NERRS,ioos:station:NOAA.NERRS:gndblwq:1,2013-12-22T19:00:00Z,30.3571,-88.4629,0.0,17.3,2 
NERRS,ioos:station:NOAA.NERRS:gndblwq:1,2013-12-22T20:00:00Z,30.3571,-88.4629,0.0,17.3,2 
NERRS,ioos:station:NOAA.NERRS:gndblwq:1,2013-12-22T21:00:00Z,30.3571,-88.4629,0.0,17.3,2 
NERRS,ioos:station:NOAA.NERRS:gndblwq:1,2013-12-22T22:00:00Z,30.3571,-88.4629,0.0,17.2,2 
NERRS,ioos:station:NOAA.NERRS:gndblwq:1,2013-12-22T23:00:00Z,30.3571,-88.4629,0.0,17.0,2 
NERRS,ioos:station:NOAA.NERRS:gndblwq:1,2013-12-23T00:00:00Z,30.3571,-88.4629,0.0,17.0,2 
NERRS,ioos:station:NOAA.NERRS:gndblwq:1,2013-12-23T19:00:00Z,30.3571,-88.4629,0.0,15.2,2 
NERRS,ioos:station:NOAA.NERRS:gndblwq:1,2013-12-23T20:00:00Z,30.3571,-88.4629,0.0,15.3,2 
NERRS,ioos:station:NOAA.NERRS:gndblwq:1,2013-12-23T21:00:00Z,30.3571,-88.4629,0.0,15.2,2 
NERRS,ioos:station:NOAA.NERRS:gndblwq:1,2013-12-23T22:00:00Z,30.3571,-88.4629,0.0,15.0,2 
NERRS,ioos:station:NOAA.NERRS:gndblwq:1,2013-12-23T23:00:00Z,30.3571,-88.4629,0.0,14.5,2 
NERRS,ioos:station:NOAA.NERRS:gndblwq:1,2013-12-24T00:00:00Z,30.3571,-88.4629,0.0,14.2,2 
NERRS,ioos:station:NOAA.NERRS:gndblwq:1,2013-12-24T01:00:00Z,30.3571,-88.4629,0.0,13.8,2 
NERRS,ioos:station:NOAA.NERRS:gndblwq:1,2013-12-24T02:00:00Z,30.3571,-88.4629,0.0,13.3,2 
NERRS,ioos:station:NOAA.NERRS:gndblwq:1,2013-12-24T03:00:00Z,30.3571,-88.4629,0.0,13.4,2 
NERRS,ioos:station:NOAA.NERRS:gndblwq:1,2013-12-24T04:00:00Z,30.3571,-88.4629,0.0,12.9,2 
NERRS,ioos:station:NOAA.NERRS:gndblwq:1,2013-12-24T05:00:00Z,30.3571,-88.4629,0.0,11.9,2 
NERRS,ioos:station:NOAA.NERRS:gndblwq:1,2013-12-24T06:00:00Z,30.3571,-88.4629,0.0,11.3,2 
NERRS,ioos:station:NOAA.NERRS:gndblwq:1,2013-12-24T14:00:00Z,30.3571,-88.4629,0.0,7.6,2 
NERRS,ioos:station:NOAA.NERRS:gndblwq:1,2013-12-24T15:00:00Z,30.3571,-88.4629,0.0,8.1,2 
NERRS,ioos:station:NOAA.NERRS:gndblwq:1,2013-12-24T16:00:00Z,30.3571,-88.4629,0.0,9.0,2 
NERRS,ioos:station:NOAA.NERRS:gndblwq:1,2013-12-24T17:00:00Z,30.3571,-88.4629,0.0,9.3,2 
NERRS,ioos:station:NOAA.NERRS:gndblwq:1,2013-12-24T18:00:00Z,30.3571,-88.4629,0.0,9.9,2 
NERRS,ioos:station:NOAA.NERRS:gndblwq:1,2013-12-24T19:00:00Z,30.3571,-88.4629,0.0,10.3,2 
NERRS,ioos:station:NOAA.NERRS:gndblwq:1,2013-12-24T20:00:00Z,30.3571,-88.4629,0.0,10.8,2 
NERRS,ioos:station:NOAA.NERRS:gndblwq:1,2013-12-24T21:00:00Z,30.3571,-88.4629,0.0,11.6,2 
NERRS,ioos:station:NOAA.NERRS:gndblwq:1,2013-12-24T22:00:00Z,30.3571,-88.4629,0.0,11.6,2 
NERRS,ioos:station:NOAA.NERRS:gndblwq:1,2013-12-24T23:00:00Z,30.3571,-88.4629,0.0,10.3,2 
NERRS,ioos:station:NOAA.NERRS:gndblwq:1,2013-12-25T00:00:00Z,30.3571,-88.4629,0.0,10.1,2 
NERRS,ioos:station:NOAA.NERRS:gndblwq:1,2013-12-25T01:00:00Z,30.3571,-88.4629,0.0,9.8,2 
NERRS,ioos:station:NOAA.NERRS:gndblwq:1,2013-12-25T02:00:00Z,30.3571,-88.4629,0.0,9.6,2 
NERRS,ioos:station:NOAA.NERRS:gndblwq:1,2013-12-25T03:00:00Z,30.3571,-88.4629,0.0,9.5,2 
NERRS,ioos:station:NOAA.NERRS:gndblwq:1,2013-12-25T04:00:00Z,30.3571,-88.4629,0.0,9.2,2 
NERRS,ioos:station:NOAA.NERRS:gndblwq:1,2013-12-25T05:00:00Z,30.3571,-88.4629,0.0,8.9,2 
NERRS,ioos:station:NOAA.NERRS:gndblwq:1,2013-12-25T06:00:00Z,30.3571,-88.4629,0.0,8.7,2 
NERRS,ioos:station:NOAA.NERRS:gndblwq:1,2013-12-25T06:45:00Z,30.3571,-88.4629,0.0,8.7,2 
NERRS,ioos:station:NOAA.NERRS:gndblwq:1,2013-12-25T08:00:00Z,30.3571,-88.4629,0.0,8.1,2 
NERRS,ioos:station:NOAA.NERRS:gndblwq:1,2013-12-25T09:00:00Z,30.3571,-88.4629,0.0,7.9,2 
NERRS,ioos:station:NOAA.NERRS:gndblwq:1,2013-12-25T10:00:00Z,30.3571,-88.4629,0.0,7.5,2 
NERRS,ioos:station:NOAA.NERRS:gndblwq:1,2013-12-25T11:00:00Z,30.3571,-88.4629,0.0,7.8,2 
NERRS,ioos:station:NOAA.NERRS:gndblwq:1,2013-12-25T11:45:00Z,30.3571,-88.4629,0.0,7.5,2 
NERRS,ioos:station:NOAA.NERRS:gndblwq:1,2013-12-25T12:45:00Z,30.3571,-88.4629,0.0,6.8,2 
NERRS,ioos:station:NOAA.NERRS:gndblwq:1,2013-12-25T14:00:00Z,30.3571,-88.4629,0.0,6.9,2 
NERRS,ioos:station:NOAA.NERRS:gndblwq:1,2013-12-25T15:00:00Z,30.3571,-88.4629,0.0,7.5,2 
NERRS,ioos:station:NOAA.NERRS:gndblwq:1,2013-12-25T16:00:00Z,30.3571,-88.4629,0.0,7.2,2 
NERRS,ioos:station:NOAA.NERRS:gndblwq:1,2013-12-25T17:00:00Z,30.3571,-88.4629,0.0,9.1,2 
NERRS,ioos:station:NOAA.NERRS:gndblwq:1,2013-12-25T17:45:00Z,30.3571,-88.4629,0.0,9.8,2 
NERRS,ioos:station:NOAA.NERRS:gndblwq:1,2013-12-25T19:00:00Z,30.3571,-88.4629,0.0,10.7,2 
NERRS,ioos:station:NOAA.NERRS:gndblwq:1,2013-12-25T20:00:00Z,30.3571,-88.4629,0.0,9.4,2 
NERRS,ioos:station:NOAA.NERRS:gndblwq:1,2013-12-25T21:00:00Z,30.3571,-88.4629,0.0,11.4,2 
NERRS,ioos:station:NOAA.NERRS:gndblwq:1,2013-12-25T22:00:00Z,30.3571,-88.4629,0.0,12.3,2 
NERRS,ioos:station:NOAA.NERRS:gndblwq:1,2013-12-25T23:00:00Z,30.3571,-88.4629,0.0,11.6,2 
NERRS,ioos:station:NOAA.NERRS:gndblwq:1,2013-12-26T00:00:00Z,30.3571,-88.4629,0.0,9.1,2 
NERRS,ioos:station:NOAA.NERRS:gndblwq:1,2013-12-26T01:00:00Z,30.3571,-88.4629,0.0,8.9,2 
NERRS,ioos:station:NOAA.NERRS:gndblwq:1,2013-12-26T01:45:00Z,30.3571,-88.4629,0.0,8.5,2 
NERRS,ioos:station:NOAA.NERRS:gndblwq:1,2013-12-26T03:00:00Z,30.3571,-88.4629,0.0,8.1,2 
NERRS,ioos:station:NOAA.NERRS:gndblwq:1,2013-12-26T04:00:00Z,30.3571,-88.4629,0.0,9.0,2 
NERRS,ioos:station:NOAA.NERRS:gndblwq:1,2013-12-26T05:00:00Z,30.3571,-88.4629,0.0,8.1,2 
NERRS,ioos:station:NOAA.NERRS:gndblwq:1,2013-12-26T06:00:00Z,30.3571,-88.4629,0.0,7.9,2 
NERRS,ioos:station:NOAA.NERRS:gndblwq:1,2013-12-26T07:00:00Z,30.3571,-88.4629,0.0,7.8,2 
NERRS,ioos:station:NOAA.NERRS:gndblwq:1,2013-12-26T08:00:00Z,30.3571,-88.4629,0.0,7.8,2 
NERRS,ioos:station:NOAA.NERRS:gndblwq:1,2013-12-26T09:00:00Z,30.3571,-88.4629,0.0,7.5,2 
NERRS,ioos:station:NOAA.NERRS:gndblwq:1,2013-12-26T10:00:00Z,30.3571,-88.4629,0.0,7.5,2 
NERRS,ioos:station:NOAA.NERRS:gndblwq:1,2013-12-26T11:00:00Z,30.3571,-88.4629,0.0,7.2,2 
NERRS,ioos:station:NOAA.NERRS:gndblwq:1,2013-12-26T12:00:00Z,30.3571,-88.4629,0.0,7.4,2 
NERRS,ioos:station:NOAA.NERRS:gndblwq:1,2013-12-26T13:00:00Z,30.3571,-88.4629,0.0,7.3,2 
NERRS,ioos:station:NOAA.NERRS:gndblwq:1,2013-12-26T14:00:00Z,30.3571,-88.4629,0.0,7.2,2 
NERRS,ioos:station:NOAA.NERRS:gndblwq:1,2013-12-26T15:00:00Z,30.3571,-88.4629,0.0,7.5,2 
NERRS,ioos:station:NOAA.NERRS:gndblwq:1,2013-12-26T16:00:00Z,30.3571,-88.4629,0.0,7.8,2 
NERRS,ioos:station:NOAA.NERRS:gndblwq:1,2013-12-26T17:00:00Z,30.3571,-88.4629,0.0,9.1,2 
NERRS,ioos:station:NOAA.NERRS:gndblwq:1,2013-12-26T18:00:00Z,30.3571,-88.4629,0.0,9.7,2 
NERRS,ioos:station:NOAA.NERRS:gndblwq:1,2013-12-26T19:00:00Z,30.3571,-88.4629,0.0,10.5,2 
NERRS,ioos:station:NOAA.NERRS:gndblwq:1,2013-12-26T20:00:00Z,30.3571,-88.4629,0.0,10.5,2 
NERRS,ioos:station:NOAA.NERRS:gndblwq:1,2013-12-26T21:00:00Z,30.3571,-88.4629,0.0,11.0,2 
NERRS,ioos:station:NOAA.NERRS:gndblwq:1,2013-12-26T21:45:00Z,30.3571,-88.4629,0.0,10.5,2 
NERRS,ioos:station:NOAA.NERRS:gndblwq:1,2013-12-26T23:00:00Z,30.3571,-88.4629,0.0,10.2,2 
NERRS,ioos:station:NOAA.NERRS:gndblwq:1,2013-12-27T00:00:00Z,30.3571,-88.4629,0.0,10.6,2 
NERRS,ioos:station:NOAA.NERRS:gndblwq:1,2013-12-27T01:00:00Z,30.3571,-88.4629,0.0,9.1,2 
NERRS,ioos:station:NOAA.NERRS:gndblwq:1,2013-12-27T02:00:00Z,30.3571,-88.4629,0.0,10.5,2 
NERRS,ioos:station:NOAA.NERRS:gndblwq:1,2013-12-27T03:00:00Z,30.3571,-88.4629,0.0,8.7,2 
NERRS,ioos:station:NOAA.NERRS:gndblwq:1,2013-12-27T03:45:00Z,30.3571,-88.4629,0.0,8.5,2 
NERRS,ioos:station:NOAA.NERRS:gndblwq:1,2013-12-27T05:00:00Z,30.3571,-88.4629,0.0,9.2,2 
NERRS,ioos:station:NOAA.NERRS:gndblwq:1,2013-12-27T06:00:00Z,30.3571,-88.4629,0.0,8.2,2 
NERRS,ioos:station:NOAA.NERRS:gndblwq:1,2013-12-27T07:00:00Z,30.3571,-88.4629,0.0,8.0,2 
NERRS,ioos:station:NOAA.NERRS:gndblwq:1,2013-12-27T08:00:00Z,30.3571,-88.4629,0.0,7.8,2 
NERRS,ioos:station:NOAA.NERRS:gndblwq:1,2013-12-27T09:00:00Z,30.3571,-88.4629,0.0,7.6,2 
NERRS,ioos:station:NOAA.NERRS:gndblwq:1,2013-12-27T10:00:00Z,30.3571,-88.4629,0.0,7.6,2 
NERRS,ioos:station:NOAA.NERRS:gndblwq:1,2013-12-27T11:00:00Z,30.3571,-88.4629,0.0,7.5,2 
NERRS,ioos:station:NOAA.NERRS:gndblwq:1,2013-12-27T12:00:00Z,30.3571,-88.4629,0.0,7.7,2 
NERRS,ioos:station:NOAA.NERRS:gndblwq:1,2013-12-27T13:00:00Z,30.3571,-88.4629,0.0,7.4,2 
NERRS,ioos:station:NOAA.NERRS:gndblwq:1,2013-12-27T14:00:00Z,30.3571,-88.4629,0.0,8.6,2 
NERRS,ioos:station:NOAA.NERRS:gndblwq:1,2013-12-27T15:00:00Z,30.3571,-88.4629,0.0,8.8,2 
NERRS,ioos:station:NOAA.NERRS:gndblwq:1,2013-12-27T16:00:00Z,30.3571,-88.4629,0.0,9.4,2 
NERRS,ioos:station:NOAA.NERRS:gndblwq:1,2013-12-27T17:00:00Z,30.3571,-88.4629,0.0,10.3,2 
NERRS,ioos:station:NOAA.NERRS:gndblwq:1,2013-12-27T18:00:00Z,30.3571,-88.4629,0.0,10.4,2 
NERRS,ioos:station:NOAA.NERRS:gndblwq:1,2013-12-27T19:00:00Z,30.3571,-88.4629,0.0,10.7,2 
NERRS,ioos:station:NOAA.NERRS:gndblwq:1,2013-12-27T20:00:00Z,30.3571,-88.4629,0.0,10.7,2 
NERRS,ioos:station:NOAA.NERRS:gndblwq:1,2013-12-27T21:00:00Z,30.3571,-88.4629,0.0,10.7,2 
NERRS,ioos:station:NOAA.NERRS:gndblwq:1,2013-12-27T22:00:00Z,30.3571,-88.4629,0.0,10.7,2 
NERRS,ioos:station:NOAA.NERRS:gndblwq:1,2013-12-27T23:00:00Z,30.3571,-88.4629,0.0,10.5,2 
NERRS,ioos:station:NOAA.NERRS:gndblwq:1,2013-12-28T00:00:00Z,30.3571,-88.4629,0.0,10.6,2 
NERRS,ioos:station:NOAA.NERRS:gndblwq:1,2013-12-28T01:00:00Z,30.3571,-88.4629,0.0,10.6,2 
NERRS,ioos:station:NOAA.NERRS:gndblwq:1,2013-12-28T02:00:00Z,30.3571,-88.4629,0.0,10.5,2 
NERRS,ioos:station:NOAA.NERRS:gndblwq:1,2013-12-28T03:00:00Z,30.3571,-88.4629,0.0,10.5,2 
NERRS,ioos:station:NOAA.NERRS:gndblwq:1,2013-12-28T04:00:00Z,30.3571,-88.4629,0.0,10.6,2 
NERRS,ioos:station:NOAA.NERRS:gndblwq:1,2013-12-28T04:45:00Z,30.3571,-88.4629,0.0,10.7,2 
NERRS,ioos:station:NOAA.NERRS:gndblwq:1,2013-12-28T06:00:00Z,30.3571,-88.4629,0.0,10.5,2 
NERRS,ioos:station:NOAA.NERRS:gndblwq:1,2013-12-28T07:00:00Z,30.3571,-88.4629,0.0,10.5,2 
NERRS,ioos:station:NOAA.NERRS:gndblwq:1,2013-12-28T08:00:00Z,30.3571,-88.4629,0.0,10.1,2 
NERRS,ioos:station:NOAA.NERRS:gndblwq:1,2013-12-28T09:00:00Z,30.3571,-88.4629,0.0,10.0,2 
NERRS,ioos:station:NOAA.NERRS:gndblwq:1,2013-12-28T10:00:00Z,30.3571,-88.4629,0.0,10.0,2 
NERRS,ioos:station:NOAA.NERRS:gndblwq:1,2013-12-28T11:00:00Z,30.3571,-88.4629,0.0,9.8,2 
NERRS,ioos:station:NOAA.NERRS:gndblwq:1,2013-12-28T11:45:00Z,30.3571,-88.4629,0.0,9.7,2 
NERRS,ioos:station:NOAA.NERRS:gndblwq:1,2013-12-28T13:00:00Z,30.3571,-88.4629,0.0,9.8,2 
NERRS,ioos:station:NOAA.NERRS:gndblwq:1,2013-12-28T14:00:00Z,30.3571,-88.4629,0.0,10.0,2 
NERRS,ioos:station:NOAA.NERRS:gndblwq:1,2013-12-28T15:00:00Z,30.3571,-88.4629,0.0,10.0,2 
NERRS,ioos:station:NOAA.NERRS:gndblwq:1,2013-12-28T16:00:00Z,30.3571,-88.4629,0.0,10.1,2 
NERRS,ioos:station:NOAA.NERRS:gndblwq:1,2013-12-28T17:00:00Z,30.3571,-88.4629,0.0,10.3,2 
NERRS,ioos:station:NOAA.NERRS:gndblwq:1,2013-12-28T18:00:00Z,30.3571,-88.4629,0.0,10.4,2 
NERRS,ioos:station:NOAA.NERRS:gndblwq:1,2013-12-28T19:00:00Z,30.3571,-88.4629,0.0,10.4,2 
NERRS,ioos:station:NOAA.NERRS:gndblwq:1,2013-12-28T20:00:00Z,30.3571,-88.4629,0.0,10.4,2 
NERRS,ioos:station:NOAA.NERRS:gndblwq:1,2013-12-28T21:00:00Z,30.3571,-88.4629,0.0,10.4,2 
NERRS,ioos:station:NOAA.NERRS:gndblwq:1,2013-12-28T22:00:00Z,30.3571,-88.4629,0.0,10.4,2 
NERRS,ioos:station:NOAA.NERRS:gndblwq:1,2013-12-28T23:00:00Z,30.3571,-88.4629,0.0,10.3,2 
NERRS,ioos:station:NOAA.NERRS:gndblwq:1,2013-12-29T00:00:00Z,30.3571,-88.4629,0.0,10.3,2 
NERRS,ioos:station:NOAA.NERRS:gndblwq:1,2013-12-29T01:00:00Z,30.3571,-88.4629,0.0,10.4,2 
NERRS,ioos:station:NOAA.NERRS:gndblwq:1,2013-12-29T02:00:00Z,30.3571,-88.4629,0.0,10.3,2 
NERRS,ioos:station:NOAA.NERRS:gndblwq:1,2013-12-29T03:00:00Z,30.3571,-88.4629,0.0,10.3,2 
NERRS,ioos:station:NOAA.NERRS:gndblwq:1,2013-12-29T04:00:00Z,30.3571,-88.4629,0.0,10.2,2 
NERRS,ioos:station:NOAA.NERRS:gndblwq:1,2013-12-29T05:00:00Z,30.3571,-88.4629,0.0,10.0,2 
NERRS,ioos:station:NOAA.NERRS:gndblwq:1,2013-12-29T06:00:00Z,30.3571,-88.4629,0.0,9.9,2 
NERRS,ioos:station:NOAA.NERRS:gndblwq:1,2013-12-29T07:00:00Z,30.3571,-88.4629,0.0,9.9,2 
NERRS,ioos:station:NOAA.NERRS:gndblwq:1,2013-12-29T08:00:00Z,30.3571,-88.4629,0.0,9.8,2 
NERRS,ioos:station:NOAA.NERRS:gndblwq:1,2013-12-29T09:00:00Z,30.3571,-88.4629,0.0,9.7,2 
NERRS,ioos:station:NOAA.NERRS:gndblwq:1,2013-12-29T10:00:00Z,30.3571,-88.4629,0.0,9.7,2 
NERRS,ioos:station:NOAA.NERRS:gndblwq:1,2013-12-29T11:00:00Z,30.3571,-88.4629,0.0,9.6,2 
NERRS,ioos:station:NOAA.NERRS:gndblwq:1,2013-12-29T12:00:00Z,30.3571,-88.4629,0.0,9.8,2 
NERRS,ioos:station:NOAA.NERRS:gndblwq:1,2013-12-29T13:00:00Z,30.3571,-88.4629,0.0,9.7,2 
NERRS,ioos:station:NOAA.NERRS:gndblwq:1,2013-12-29T14:00:00Z,30.3571,-88.4629,0.0,9.8,2 
NERRS,ioos:station:NOAA.NERRS:gndblwq:1,2013-12-29T15:00:00Z,30.3571,-88.4629,0.0,10.0,2 
NERRS,ioos:station:NOAA.NERRS:gndblwq:1,2013-12-29T16:00:00Z,30.3571,-88.4629,0.0,10.2,2 
NERRS,ioos:station:NOAA.NERRS:gndblwq:1,2013-12-29T17:00:00Z,30.3571,-88.4629,0.0,10.3,2 
NERRS,ioos:station:NOAA.NERRS:gndblwq:1,2013-12-29T18:00:00Z,30.3571,-88.4629,0.0,10.5,2 
NERRS,ioos:station:NOAA.NERRS:gndblwq:1,2013-12-29T19:00:00Z,30.3571,-88.4629,0.0,11.2,2 
NERRS,ioos:station:NOAA.NERRS:gndblwq:1,2013-12-29T20:00:00Z,30.3571,-88.4629,0.0,11.1,2 
NERRS,ioos:station:NOAA.NERRS:gndblwq:1,2013-12-29T21:00:00Z,30.3571,-88.4629,0.0,11.9,2 
NERRS,ioos:station:NOAA.NERRS:gndblwq:1,2013-12-29T22:00:00Z,30.3571,-88.4629,0.0,12.0,2 
NERRS,ioos:station:NOAA.NERRS:gndblwq:1,2013-12-29T23:00:00Z,30.3571,-88.4629,0.0,12.0,2 
NERRS,ioos:station:NOAA.NERRS:gndblwq:1,2013-12-30T00:00:00Z,30.3571,-88.4629,0.0,12.0,2 
NERRS,ioos:station:NOAA.NERRS:gndblwq:1,2013-12-30T01:00:00Z,30.3571,-88.4629,0.0,12.0,2 
NERRS,ioos:station:NOAA.NERRS:gndblwq:1,2013-12-30T02:00:00Z,30.3571,-88.4629,0.0,11.9,2 
NERRS,ioos:station:NOAA.NERRS:gndblwq:1,2013-12-30T03:00:00Z,30.3571,-88.4629,0.0,11.9,2 
NERRS,ioos:station:NOAA.NERRS:gndblwq:1,2013-12-30T03:45:00Z,30.3571,-88.4629,0.0,11.8,2 
NERRS,ioos:station:NOAA.NERRS:gndblwq:1,2013-12-30T05:00:00Z,30.3571,-88.4629,0.0,11.7,2 
NERRS,ioos:station:NOAA.NERRS:gndblwq:1,2013-12-30T06:00:00Z,30.3571,-88.4629,0.0,11.0,2 
NERRS,ioos:station:NOAA.NERRS:gndblwq:1,2013-12-30T07:00:00Z,30.3571,-88.4629,0.0,11.0,2 
NERRS,ioos:station:NOAA.NERRS:gndblwq:1,2013-12-30T08:00:00Z,30.3571,-88.4629,0.0,10.1,2 
NERRS,ioos:station:NOAA.NERRS:gndblwq:1,2013-12-30T09:00:00Z,30.3571,-88.4629,0.0,9.5,2 
NERRS,ioos:station:NOAA.NERRS:gndblwq:1,2013-12-30T10:00:00Z,30.3571,-88.4629,0.0,9.0,2 
NERRS,ioos:station:NOAA.NERRS:gndblwq:1,2013-12-30T11:00:00Z,30.3571,-88.4629,0.0,8.3,2 
NERRS,ioos:station:NOAA.NERRS:gndblwq:1,2013-12-30T12:00:00Z,30.3571,-88.4629,0.0,8.9,2 
NERRS,ioos:station:NOAA.NERRS:gndblwq:1,2013-12-30T13:00:00Z,30.3571,-88.4629,0.0,9.0,2 
NERRS,ioos:station:NOAA.NERRS:gndblwq:1,2013-12-30T14:00:00Z,30.3571,-88.4629,0.0,9.8,2 
NERRS,ioos:station:NOAA.NERRS:gndblwq:1,2013-12-30T15:00:00Z,30.3571,-88.4629,0.0,10.4,2 
NERRS,ioos:station:NOAA.NERRS:gndblwq:1,2013-12-30T16:00:00Z,30.3571,-88.4629,0.0,10.9,2 
NERRS,ioos:station:NOAA.NERRS:gndblwq:1,2013-12-30T17:00:00Z,30.3571,-88.4629,0.0,11.1,2 
NERRS,ioos:station:NOAA.NERRS:gndblwq:1,2013-12-30T18:00:00Z,30.3571,-88.4629,0.0,11.2,2 
NERRS,ioos:station:NOAA.NERRS:gndblwq:1,2013-12-30T19:00:00Z,30.3571,-88.4629,0.0,11.4,2 
NERRS,ioos:station:NOAA.NERRS:gndblwq:1,2013-12-30T20:00:00Z,30.3571,-88.4629,0.0,11.6,2 
NERRS,ioos:station:NOAA.NERRS:gndblwq:1,2013-12-30T21:00:00Z,30.3571,-88.4629,0.0,11.8,2 
NERRS,ioos:station:NOAA.NERRS:gndblwq:1,2013-12-30T22:00:00Z,30.3571,-88.4629,0.0,11.8,2 
NERRS,ioos:station:NOAA.NERRS:gndblwq:1,2013-12-30T23:00:00Z,30.3571,-88.4629,0.0,11.7,2 
NERRS,ioos:station:NOAA.NERRS:gndblwq:1,2013-12-31T00:00:00Z,30.3571,-88.4629,0.0,11.7,2 
NERRS,ioos:station:NOAA.NERRS:gndblwq:1,2013-12-31T01:00:00Z,30.3571,-88.4629,0.0,11.9,2 
NERRS,ioos:station:NOAA.NERRS:gndblwq:1,2013-12-31T01:45:00Z,30.3571,-88.4629,0.0,11.9,2 
NERRS,ioos:station:NOAA.NERRS:gndblwq:1,2013-12-31T10:00:00Z,30.3571,-88.4629,0.0,10.9,2 
NERRS,ioos:station:NOAA.NERRS:gndblwq:1,2013-12-31T11:00:00Z,30.3571,-88.4629,0.0,10.7,2 
NERRS,ioos:station:NOAA.NERRS:gndblwq:1,2013-12-31T11:45:00Z,30.3571,-88.4629,0.0,10.4,2 
 
DISCLAIMER: The Gulf of Mexico Coastal and Ocean Observing (GCOOS) Data Portal aggregates data from the regional data providers for the convenience of all data users. Data published on this website should not be used for navigation or certain other uses as we cannot guarantee data accuracy or availability. The data and delivery services are provided 'as is' without warranty of any kind. Data Source: Gulf of Mexico Coastal Ocean Observing System Data Portal (http://data.gcoos.org/) 
